Regional Weather Roundup
Issued by NWS

Home | Current Version | Previous Version | Text Only | Print | Product List | Glossary Off
Versions: 1 2 3 4 5 6 7 8 9 10 11 12 13 14 15 16 17 18 19 20 21 22 23 24 25 26 27 28 29 30 31 32 33 34 35 36 37 38 39 40 41 42 43 44 45 46 47 48 49 50

000
ASUS45 KABQ 270610
RWRNM
WEATHER ROUNDUP FOR NEW MEXICO
NATIONAL WEATHER SERVICE ALBUQUERQUE NM
1100 PM MST MON JAN 26 2015

NOTE: "FAIR" MEANS FEW OR NO CLOUDS BELOW 12,000 FEET AGL WITH NO
       SIGNIFICANT WEATHER OR OBSTRUCTIONS TO VISION.

      THIS PRODUCT IS RELEASED AS TWO VERSIONS.  ONE VERSION NEAR
      THE TOP OF THE HOUR CONTAINING PRELIMINARY DATA FROM ALBUQUERQUE
      AND OTHER STATIONS.  A FINAL VERSION WITH ADDITIONAL DATA IS
      ISSUED ABOUT 10 MINUTES AFTER THE HOUR.

NMZ501-503-504-510>518-270700-
NORTHWEST PLATEAU/NORTHCENTRAL MOUNTAINS

CITY           SKY/WX    TMP DP  RH WIND       PRES   REMARKS
FARMINGTON     CLEAR     37  24  59 E13       30.33S WCI  29
6HR MIN TEMP:  37; 6HR MAX TEMP:  54;

LOS ALAMOS     PTCLDY    43  24  48 CALM      30.41S
SANTA FE       NOT AVBL
TAOS           PTCLDY    30  23  74 N6        30.42R WCI  24
ANGEL FIRE     FAIR      19  18  94 CALM      30.47R

$$
NMZ402-403-502-505>509-270700-
WESTCENTRAL MOUNTAINS/SOUTHWEST MOUNTAINS

CITY           SKY/WX    TMP DP  RH WIND       PRES   REMARKS
GALLUP         MOCLDY    29  24  82 CALM      30.35R
6HR MIN TEMP:  28; 6HR MAX TEMP:  52;

GRANTS         PTCLDY    34  26  71 SE6       30.38R WCI  29
SILVER CITY    CLOUDY    43  30  61 N8        30.35S

$$
NMZ407-409-411-412-270700-
SOUTHERN DESERTS

CITY           SKY/WX    TMP DP  RH WIND       PRES   REMARKS
LORDSBURG      CLOUDY    46  30  53 SE12      30.29R
DEMING         CLOUDY    47  31  53 E6        30.31R
6HR MIN TEMP:  45; 6HR MAX TEMP:  56;

LAS CRUCES     MOCLDY    43  35  72 CALM      30.32R
HOLLOMAN AFB   MOCLDY    39  31  74 NE9       30.28F WCI  32
ALAMOGORDO     PTCLDY    43  28  56 N8        30.30F
T OR C         CLOUDY    46  27  47 NW8       30.31S
6HR MIN TEMP:  44; 6HR MAX TEMP:  57;


$$
NMZ519>523-270700-
CENTRAL VALLEYS/CENTRAL HIGHLANDS

CITY           SKY/WX    TMP DP  RH WIND       PRES   REMARKS
ALBUQUERQUE    PTCLDY    42  27  55 NW3       30.34S
6HR MIN TEMP:  37; 6HR MAX TEMP:  56;

DOUBLE EAGLE   PTCLDY    35  25  67 N5        30.35S WCI  31
MORIARTY ARPT  FAIR      28  25  88 N5        30.38S WCI  23
6HR MIN TEMP:  28; 6HR MAX TEMP:  56;

CLINES CORNERS MOCLDY    45  21  38 CALM      30.37S
6HR MIN TEMP:  40; 6HR MAX TEMP:  51;

BELEN          FAIR      32  27  80 NW5       30.34R WCI  28
6HR MIN TEMP:  32; 6HR MAX TEMP:  50;

SOCORRO        FAIR      37  29  73 W3        30.34R
6HR MIN TEMP:  36; 6HR MAX TEMP:  55;


$$
NMZ524>526-539-540-270700-
SOUTHCENTRAL MOUNTAINS

CITY           SKY/WX    TMP DP  RH WIND       PRES   REMARKS
RUIDOSO        PTCLDY    41  19  42 CALM      30.39S

$$
NMZ527>531-270700-
NORTHEAST HIGHLANDS/NORTHEAST PLAINS

CITY           SKY/WX    TMP DP  RH WIND       PRES   REMARKS
LAS VEGAS      PTCLDY    41  24  51 CALM      30.38R
6HR MIN TEMP:  38; 6HR MAX TEMP:  45;

RATON          CLEAR     31  25  78 NE8       30.34S WCI  23
6HR MIN TEMP:  30; 6HR MAX TEMP:  51;

CLAYTON        PTCLDY    43  29  57 W12       30.27S
6HR MIN TEMP:  42; 6HR MAX TEMP:  58;


$$
NMZ532>537-270700-
EASTCENTRAL PLAINS

CITY           SKY/WX    TMP DP  RH WIND       PRES   REMARKS
TUCUMCARI      PTCLDY    36  30  79 W6        30.27S WCI  31
6HR MIN TEMP:  36; 6HR MAX TEMP:  58;

CANNON AFB     PTCLDY    42  32  67 N13       30.28R
6HR MIN TEMP:  42; 6HR MAX TEMP:  56;

CLOVIS AIRPORT PTCLDY    43  30  61 NW10      30.28R

$$
NMZ028-029-538-270700-
SOUTHEAST PLAINS

CITY           SKY/WX    TMP DP  RH WIND       PRES   REMARKS
ROSWELL        PTCLDY    38  32  79 NW5       30.27S WCI  34
6HR MIN TEMP:  37; 6HR MAX TEMP:  57;

ARTESIA        PTCLDY    41  37  87 N10       30.28R
CARLSBAD       PTCLDY    45  33  63 W9        30.25S
6HR MIN TEMP:  42; 6HR MAX TEMP:  58;

HOBBS          PTCLDY    45  32  61 W9        30.27R


$$


USA.gov is the U.S. government's official web portal to all federal, state and local government web resources and services.